This demonstration page uses our WeatherBlox Daily Observations layout. Learn more.

Left ArrowRight Arrow

Hourly Observations for May 11, 2021

Temp ( °F °C ) Dew Point ( °F °C ) Humidity (%) Winds ( mph kmh ) Pressure ( in mb ) Visibility ( mi km ) Precip ( " mm )
12:53 am 00:53 Mostly Clear 60 15.6 52 11.1 75 75 ENE 10 17 29.88 1012 10 16 0.00 0.00
1:34 am 01:34 Mostly Cloudy 60 15.6 52 11.1 75 75 E 13 20 29.88 1012 10 16 0.00 0.00
1:53 am 01:53 Cloudy 60 15.6 52 11.1 75 75 E 13 20 29.84 1011 10 16 0.00 0.00
2:16 am 02:16 Cloudy 60 15.6 53 11.7 78 78 E 12 19 29.88 1012 10 16 0.00 0.00
2:53 am 02:53 Cloudy 61 16.1 55 12.8 81 81 E 10 17 29.83 1010 10 16 0.00 0.00
3:14 am 03:14 Cloudy 61 16.1 56 13.3 84 84 E 10 17 29.87 1011 9 14 0.00 0.00
3:53 am 03:53 Cloudy 61 16.1 57 13.9 87 87 E 12 19 29.80 1009 8 13 0.00 0.00
4:30 am 04:30 Cloudy 61 16.1 56 13.3 84 84 ESE 15 24 29.83 1010 8 13 0.00 0.00
4:53 am 04:53 Cloudy 62 16.7 56 13.3 80 80 ESE 10 17 29.80 1009 9 14 0.00 0.00
5:34 am 05:34 Cloudy 62 16.7 57 13.9 84 84 Calm 29.85 1011 10 16 0.00 0.00
5:53 am 05:53 Cloudy 62 16.7 56 13.3 80 80 NNW 3 6 29.81 1010 10 16 0.00 0.00
6:53 am 06:53 Mostly Clear 61 16.1 56 13.3 84 84 NE 5 7 29.81 1009 10 16 0.00 0.00
7:53 am 07:53 Sunny 62 16.7 56 13.3 80 80 ENE 5 7 29.83 1010 8 13 0.00 0.00
8:53 am 08:53 Sunny 63 17.2 56 13.3 78 78 ESE 5 7 29.86 1011 10 16 0.00 0.00
9:53 am 09:53 Sunny 67 19.4 56 13.3 68 68 ESE 7 11 29.86 1011 10 16 0.00 0.00
10:53 am 10:53 Mostly Sunny 71 21.7 57 13.9 61 61 SE 8 13 29.88 1012 10 16 0.00 0.00
11:53 am 11:53 Sunny 75 23.9 55 12.8 50 50 undefined N/A 29.87 1012 10 16 0.00 0.00
12:53 pm 12:53 Sunny 76 24.4 56 13.3 50 50 NE 18 30 29.88 1012 10 16 0.00 0.00
1:53 pm 13:53 Sunny 74 23.3 55 12.8 52 52 NNE 18 30 29.88 1012 10 16 0.00 0.00
2:53 pm 14:53 Sunny 78 25.6 53 11.7 42 42 NE 17 28 29.86 1011 10 16 0.00 0.00
3:53 pm 15:53 Sunny 77 25 52 11.1 42 42 NNE 18 30 29.84 1011 10 16 0.00 0.00
4:53 pm 16:53 Sunny 76 24.4 52 11.1 43 43 NE 21 33 29.84 1011 10 16 0.00 0.00
5:53 pm 17:53 Sunny 78 25.6 52 11.1 40 40 ENE 17 28 29.84 1010 10 16 0.00 0.00
6:53 pm 18:53 Sunny 74 23.3 51 10.6 45 45 ENE 20 31 29.85 1011 10 16 0.00 0.00
7:53 pm 19:53 Sunny 68 20 52 11.1 57 57 ENE 22 35 29.92 1013 10 16 0.00 0.00
8:45 pm 20:45 Mostly Cloudy 63 17.2 52 11.1 68 68 ENE 17 28 29.98 1015 10 16 0.00 0.00
8:53 pm 20:53 Mostly Cloudy 63 17.2 52 11.1 68 68 E 18 30 29.98 1015 10 16 0.00 0.00
9:53 pm 21:53 Cloudy 62 16.7 51 10.6 67 67 ENE 21 33 30.01 1016 10 16 0.00 0.00
10:36 pm 22:36 Partly Cloudy 61 16.1 51 10.6 70 70 ENE 14 22 30.04 1017 10 16 0.00 0.00
10:53 pm 22:53 Partly Cloudy 60 15.6 50 10 70 70 NE 18 30 30.02 1017 10 16 0.00 0.00
11:53 pm 23:53 Mostly Clear 58 14.4 49 9.4 72 72 ENE 16 26 30.04 1017 10 16 0.00 0.00

Powered by AerisWeather